Regional Weather Roundup
Issued by NWS Burlington, VT

Current Version | Previous Version | Text Only | Print | Product List | Glossary On
Versions: 1 2 3 4 5 6 7 8 9 10 11 12 13 14 15 16 17 18 19 20 21 22 23 24 25 26 27 28 29 30 31 32 33 34 35 36 37 38 39 40 41 42 43 44 45 46 47 48 49 50
517
ASUS41 KBTV 301130
RWRBTV
VERMONT REGIONAL WEATHER ROUNDUP
NATIONAL WEATHER SERVICE BURLINGTON VT
700 AM EDT TUE MAY 30 2017

NOTE: "FAIR" INDICATES FEW OR NO CLOUDS BELOW 12,000 FEET WITH NO
SIGNIFICANT WEATHER AND/OR OBSTRUCTIONS TO VISIBILITY.

* THESE REPORTS ARE NOT UNDER NWS QUALITY CONTROL AND/OR DO NOT
  REPORT WEATHER SUCH AS PRECIPITATION AND FOG.

VTZ001>019-301200-
_____VERMONT_____


CITY           SKY/WX    TMP DP  RH WIND       PRES   REMARKS
BURLINGTON     PTSUNNY   58  51  78 S14G24    30.04R
MONTPELIER     CLOUDY    49  47  93 S7        30.14R
MORRISVILLE    CLOUDY    51  47  86 S5        30.10R
ST. JOHNSBURY*   N/A     50  46  86 MISG      30.11R
LYNDONVILLE*   CLOUDY    48  45  90 SE9       30.13S
MIDDLEBURY*    CLOUDY    55  49  80 S8        30.09R
RUTLAND*       CLOUDY    52  47  83 SE9       30.12R
SPRINGFIELD    CLOUDY    49  47  93 VRB5      30.15R
HIGHGATE*      FAIR      57  51  82 S14G20    30.02R
NEWPORT*       CLOUDY    50  46  87 S12G21    30.09R
BENNINGTON     CLOUDY    54  48  80 E6        30.11R
ISLAND POND*     N/A     48 N/A N/A N1          N/A
GALLUP MILLS*    N/A     48 N/A N/A MISG        N/A
UNION VILLAGE*   N/A     50 N/A N/A MISG        N/A
MT. MANSFIELD*   N/A     48 N/A N/A S16         N/A

_____LAKE CHAMPLAIN_____


CITY           SKY/WX    TMP DP  RH WIND       PRES   REMARKS
BURTON ISLAND*   N/A     57  52  82 S21         N/A
COLCHESTER RF*   N/A     55  52  88 S28         N/A
DIAMOND ISL*     N/A     57  52  82 SE17        N/A

$$

NYZ007-026>031-035-052-083-087-301200-
_____NORTHERN NEW YORK_____


CITY           SKY/WX    TMP DP  RH WIND       PRES   REMARKS
PLATTSBURGH    PTSUNNY   54  50  86 SE13      30.01S
SARANAC LAKE   CLOUDY    45  45 100 CALM      30.00R
MASSENA        CLOUDY    57  55  93 CALM      29.98R
OGDENSBURG*    FAIR      60  56  86 S6        29.93F
POTSDAM*       LGT RAIN  59  57  94 SW8       29.98R
STARK FALLS*     N/A     55 N/A N/A S10         N/A
WATERTOWN      CLOUDY    59  58  96 S13G18    29.94F
FT DRUM        CLOUDY    57  55  94 S15       29.96R
ALBANY         CLOUDY    57  51  80 S10       30.09R
GLENS FALLS    CLOUDY    55  52  89 S3        30.09  FOG

$$
NHZ002-005-011-301200-
_____NEW HAMPSHIRE_____


CITY           SKY/WX    TMP DP  RH WIND       PRES   REMARKS
LEBANON        CLOUDY    51  48  89 CALM      30.14R
KEENE          CLOUDY    50  48  93 CALM      30.17R
MT WASHINGTON  PTSUNNY   43  37  81 W15         N/A
PLYMOUTH       CLOUDY    47  46  93 CALM      30.18R
WHITEFIELD     CLOUDY    49  44  83 CALM      30.12S

$$

_____REGIONAL QUEBEC LOCATIONS_____


CITY           SKY/WX    TMP DP  RH WIND       PRES   REMARKS
MONTREAL       LGT RAIN  57  52  82 SE13      29.97R
QUEBEC CITY    LGT RAIN  52  48  87 E8        30.07R
SHERBROOKE     PTSUNNY   52  46  82 SE6       30.06R

_____REGIONAL ONTARIO LOCATIONS_____


CITY           SKY/WX    TMP DP  RH WIND       PRES   REMARKS
OTTAWA         PTSUNNY   57  55  94 SE10      29.92F

______KEY______
VSB  - VISIBILITY IN MILES
WCI  - WIND CHILL INDEX
HX   - HEAT INDEX
$$
NNNN




USA.gov is the U.S. government's official web portal to all federal, state and local government web resources and services.